This is the latest recevied weather packets stored in our database for station/object WB6ANP. If no packets are shown the sender has not sent any weather packets the latest 10 day(s).
| Time | Temp. | Humidity | Pressure | Rain* | Wind** | Luminosity | Snow |
|---|---|---|---|---|---|---|---|
| 1777735367 | 18.89° C | 56% | 1022.4 hPa | 0 mm | - | 646 W/m² | - |
| 1777735064 | 18.89° C | 55% | 1022.7 hPa | 0 mm | - | 635 W/m² | - |
| 1777734761 | 18.89° C | 56% | 1022.3 hPa | 0 mm | - | 617 W/m² | - |
| 1777734459 | 18.89° C | 61% | 1022.4 hPa | 0 mm | - | 602 W/m² | - |
| 1777734156 | 18.33° C | 61% | 1022.3 hPa | 0 mm | - | 585 W/m² | - |
| 1777733852 | 17.78° C | 64% | 1022.3 hPa | 0 mm | - | 569 W/m² | - |
| 1777733548 | 17.78° C | 64% | 1022.1 hPa | 0 mm | - | 546 W/m² | - |
| 1777733245 | 17.78° C | 64% | 1022.2 hPa | 0 mm | - | 530 W/m² | - |
| 1777732942 | 17.22° C | 66% | 1022.4 hPa | 0 mm | - | 512 W/m² | - |
| 1777732638 | 17.22° C | 66% | 1022.4 hPa | 0 mm | - | 496 W/m² | - |
| 1777732336 | 17.22° C | 67% | 1022.3 hPa | 0 mm | - | 476 W/m² | - |
| 1777732033 | 16.67° C | 68% | 1022.2 hPa | 0 mm | - | 458 W/m² | - |
| 1777731729 | 16.67° C | 71% | 1022.2 hPa | 0 mm | - | 437 W/m² | - |
| 1777731427 | 16.11° C | 70% | 1022.1 hPa | 0 mm | - | 417 W/m² | - |
| 1777731125 | 16.11° C | 71% | 1022.1 hPa | 0 mm | - | 372 W/m² | - |
| 1777730519 | 16.11° C | 73% | 1022 hPa | 0 mm | - | 365 W/m² | - |
| 1777730215 | 15.56° C | 73% | 1022.2 hPa | 0 mm | - | 340 W/m² | - |
| 1777729912 | 15.56° C | 73% | 1022 hPa | 0 mm | - | 321 W/m² | - |
| 1777729608 | 15.56° C | 75% | 1021.9 hPa | 0 mm | - | 302 W/m² | - |
| 1777729305 | 15.56° C | 76% | 1021.8 hPa | 0 mm | - | 284 W/m² | - |
| 1777729002 | 15° C | 76% | 1021.8 hPa | 0 mm | - | 266 W/m² | - |
| 1777728699 | 15° C | 76% | 1021.5 hPa | 0 mm | - | 246 W/m² | - |
| 1777728395 | 14.44° C | 77% | 1021.7 hPa | 0 mm | - | 231 W/m² | - |
| 1777728093 | 14.44° C | 78% | 1021.7 hPa | 0 mm | - | 206 W/m² | - |
| 1777727790 | 13.89° C | 78% | 1021.7 hPa | 0 mm | - | 176 W/m² | - |
* Rain latest hour (hover to see other rain measurements)
** Current wind speed in m/s (hover to see current wind gust speed)